User: anonymous   Login
Location: Fort Wayne
(41.1310°N, 85.1290°W)
Time: 06:48:43
(UTC-04:00)
Language:

Cosmos 2227 Rocket - Orbit

View from above orbital plane
View from above orbital plane
View from above satellite
View from above satellite

Ground track
Ground track

The orbit data is extracted from the following two-line orbital elements,

1 22285U 92093B   18114.91476802 +.00000280 +00000-0 +16891-3 0  9992
2 22285 071.0209 278.3476 0004195 344.5714 015.5280 14.15022186306352
Epoch (UTC): 24 April 2018 21:57:15
Eccentricity: 0.0004195
inclination: 71.0209°
perigee height: 839 km
apogee height: 845 km
right ascension of ascending node: 278.3476°
argument of perigee: 344.5714°
revolutions per day: 14.15022186
mean anomaly at epoch: 15.5280°
orbit number at epoch: 30635

The dashed part of the orbit path shows where the satellite is in the earth's shadow,  

DLR